Location: Newark
(34.1333°N, 7.9667°W)
Time: 13:21:01
(UTC+00:00)

DUCHIFAT 1 - Pass Details

Date: 14 June 2023
Orbit: 561 x 575 km, 98.1° (Epoch: 21 September)

Event Time Altitude Azimuth Distance (km) Brightness Sun altitude
Rises 03:54:38 0° 12° (NNE) 2,820 ? -15.1°
Reaches altitude 10° 03:56:48 10° 12° (NNE) 1,914 ? -14.8°
Maximum altitude 04:00:57 90° 100° (E) 589 ? -14.1°
Enters shadow 04:04:13 16° 193° (SSW) 1,547 ? -13.6°
